Flag for U.S.A. Weather past 2 weeks in San Luis Obispo, California, U.S.A.

Now
59 °F

Sunny.


Feels Like: 57 °F
Forecast: 44 / 75 °F
Wind: 9 mph from Northwest

Location: San Luis Obispo County-Mc Chesney Field

Current Time: Apr 17, 2015 at 8:46:34 PM

Latest Report: Apr 17, 2015 at 7:56 PM


Visibility: 10 mi

Pressure: 30.02 "Hg

Humidity: 48%

Dew point: 39 °F

Location of San Luis ObispoLocation

Historic Weather in San Luis Obispo — Graph

°F

San Luis Obispo temperature yesterday

Maximum temperature yesterday: 80 °F (at 1:56 PM)
Minimum temperature yesterday: 45 °F (at 3:56 AM)
Average temperature yesterday: 63 °F

Past Weeks' High & Low Weather Summary

 TemperatureHumidityPressure
High83 °F (Apr 17, 12:56 PM)100% (Apr 13, 2:56 AM)30.19 "Hg (Apr 13, 2:56 AM)
Low39 °F (Apr 5, 6:56 AM)6% (Apr 14, 3:56 PM)29.88 "Hg (Apr 5, 6:56 PM)
Average57 °F58%30.02 "Hg
* Reported Apr 2 6:56 PM — Apr 17 6:56 PM, San Luis Obispo, Weather by CustomWeather, © 2015

Note: Actual official high and low records may vary slightly from our data, if they occured in-between our weather recording intervals... More about our weather records

Advertising

San Luis Obispo weather history for previous 24 hours

 ConditionsComfort  
Time TempWeatherWind HumidityBarometerVisibility
6:56 PM
Fri, Apr 17
67 °FSunny.12 mph25%30.00 "Hg10 mi
5:56 PM71 °FSunny.12 mph20%30.00 "Hg10 mi
4:56 PM74 °FSunny.13 mph17%30.00 "Hg10 mi
3:56 PM78 °FSunny.15 mph17%30.00 "Hg10 mi
2:56 PM77 °FSunny.20 mph18%30.02 "Hg10 mi
1:56 PM79 °FSunny.17 mph20%30.03 "Hg10 mi
12:56 PM83 °FSunny.16 mph16%30.03 "Hg10 mi
11:56 AM80 °FSunny.No wind14%30.04 "Hg10 mi
10:56 AM75 °FSunny.No wind18%30.06 "Hg10 mi
9:56 AM69 °FSunny.No wind19%30.06 "Hg10 mi
8:56 AM60 °FSunny.No wind33%30.06 "Hg10 mi
7:56 AM50 °FSunny.No wind50%30.06 "Hg10 mi
6:56 AM44 °FClear.No wind58%30.05 "Hg10 mi
5:56 AM43 °FClear.No wind56%30.04 "Hg10 mi
4:56 AM45 °FClear.3 mph51%30.03 "Hg10 mi
3:56 AM46 °FClear.No wind54%30.03 "Hg10 mi
2:56 AM47 °FClear.No wind50%30.04 "Hg10 mi
1:56 AM49 °FClear.5 mph44%30.06 "Hg10 mi
12:56 AM51 °FClear.N/A42%30.06 "Hg10 mi
11:56 PM
Thu, Apr 16
52 °FClear.No wind43%30.07 "Hg10 mi
10:56 PM54 °FClear.No wind40%30.06 "Hg10 mi
9:56 PM57 °FClear.3 mph34%30.05 "Hg10 mi
8:56 PM59 °FClear.5 mph31%30.03 "Hg10 mi
Weather by CustomWeather, © 2015

See weather overviewHow to use our weather pages